EW8320 Weather Reports


Display with metric or nautical units.
time (UTC)temp
F
wind
direction
speed
MPH
gust
MPH
rain 1hr
in
rain 24hr
in
rain mn
in
humidity
%
barometer
mb
20260906124318 41 273 4.0 7.0 0.00 0.00 0.00 87 1018.3
20260906122418 41 270 2.0 5.0 0.00 0.00 0.00 87 1018.4
20260906121417 41 248 1.0 3.0 0.00 0.00 0.00 87 1018.4
20260906115517 42 252 3.0 8.0 0.00 0.00 0.00 85 1018.5
20260906114520 42 270 3.0 4.0 0.00 0.00 0.00 86 1018.4
20260906113518 43 270 3.0 7.0 0.00 0.00 0.00 85 1018.5
20260906112521 43 269 3.0 6.0 0.00 0.00 0.00 86 1018.6
20260906111618 43 261 4.0 7.0 0.00 0.00 0.00 85 1018.7
20260906105720 43 256 1.0 3.0 0.00 0.00 0.00 86 1018.9
20260906105618 43 259 2.0 4.0 0.00 0.00 0.00 85 1018.9
20260906104618 43 269 1.0 5.0 0.00 0.00 0.00 86 1018.9
20260906103717 43 276 2.0 4.0 0.00 0.00 0.00 86 1018.9
20260906101717 43 272 2.0 4.0 0.00 0.00 0.00 86 1019.0
20260906094820 44 249 1.0 2.0 0.00 0.00 0.00 85 1019.2
20260906093818 44 275 2.0 4.0 0.00 0.00 0.00 84 1019.2
20260906091818 44 225 0.0 1.0 0.00 0.00 0.00 83 1019.2
20260906090818 45 269 2.0 5.0 0.00 0.00 0.00 83 1019.2
20260906085818 42 287 2.0 3.0 0.00 0.00 0.00 84 1019.4
20260906083818 40 249 0.0 2.0 0.00 0.00 0.00 83 1019.7
20260906082818 40 269 2.0 5.0 0.00 0.00 0.00 81 1019.7
20260906081821 40 260 4.0 6.0 0.00 0.00 0.00 82 1019.8
20260906080917 40 275 3.0 5.0 0.00 0.00 0.00 82 1019.9
20260906080819 40 262 3.0 5.0 0.00 0.00 0.00 82 1019.9
20260906075819 40 266 2.0 3.0 0.00 0.00 0.00 82 1019.9
20260906074818 44 271 2.0 4.0 0.00 0.00 0.00 82 1020.0
20260906073822 46 222 1.0 3.0 0.00 0.00 0.00 81 1020.2
20260906072819 46 236 0.0 1.0 0.00 0.00 0.00 79 1020.2
20260906071918 47 277 3.0 6.0 0.00 0.00 0.00 77 1020.4
20260906070005 48 260 4.0 5.0 0.00 0.00 0.00 77 1020.4
20260906065008 48 257 2.0 6.0 0.00 0.00 0.00 77 1020.7
20260906062005 49 266 2.0 5.0 0.00 0.00 0.00 77 1020.5
20260906061005 49 264 4.0 6.0 0.00 0.00 0.00 77 1020.6
20260906060103 48 278 3.0 5.0 0.00 0.00 0.00 77 1020.8
20260906055105 48 275 1.0 4.0 0.00 0.00 0.00 77 1021.0
20260906054204 50 225 2.0 3.0 0.00 0.00 0.00 74 1021.0
20260906053303 50 266 2.0 5.0 0.00 0.00 0.00 75 1021.1
20260906052305 50 260 4.0 6.0 0.00 0.00 0.00 75 1021.3
20260906051305 49 260 4.0 7.0 0.00 0.00 0.00 77 1021.2
20260906050304 47 263 1.0 2.0 0.00 0.00 0.00 80 1021.5
20260906045306 48 67 0.0 0.0 0.00 0.00 0.00 79 1021.3
20260906043307 49 67 0.0 0.0 0.00 0.00 0.00 78 1021.2
20260906041404 50 67 0.0 0.0 0.00 0.00 0.00 74 1021.4
20260906040405 51 67 0.0 0.0 0.00 0.00 0.00 71 1021.4
20260906035406 52 67 0.0 0.0 0.00 0.00 0.00 67 1021.3
20260906034505 54 67 0.0 1.0 0.00 0.00 0.00 63 1021.2
20260906033521 55 67 0.0 0.0 0.00 0.00 0.00 60 1021.3
20260906032603 56 60 1.0 2.0 0.00 0.00 0.00 59 1021.2
20260906031604 57 22 0.0 1.0 0.00 0.00 0.00 57 1021.0
20260906030606 58 313 4.0 5.0 0.00 0.00 0.00 56 1020.9
20260906025703 58 327 0.0 2.0 0.00 0.00 0.00 54 1020.7
20260906024704 59 330 4.0 5.0 0.00 0.00 0.00 53 1020.7
20260906023705 59 319 2.0 4.0 0.00 0.00 0.00 54 1020.6
20260906020705 61 353 4.0 6.0 0.00 0.00 0.00 50 1020.3
20260906014805 61 290 2.0 3.0 0.00 0.00 0.00 50 1020.5
20260906013806 62 293 2.0 3.0 0.00 0.00 0.00 50 1020.3
20260906012805 62 270 0.0 1.0 0.00 0.00 0.00 50 1020.3
20260906011804 63 315 0.0 2.0 0.00 0.00 0.00 46 1020.4
20260906010806 63 45 0.0 0.0 0.00 0.00 0.00 45 1020.2
20260906005806 63 69 2.0 4.0 0.00 0.00 0.00 45 1020.2
20260906004905 63 82 3.0 7.0 0.00 0.00 0.00 45 1020.0
20260906002905 63 90 2.0 4.0 0.00 0.00 0.00 45 1020.2
20260906001906 64 98 3.0 4.0 0.00 0.00 0.00 45 1020.2
20260906000905 64 90 3.0 5.0 0.00 0.00 0.00 44 1020.2
20260905235905 64 94 1.0 3.0 0.00 0.00 0.00 45 1020.2
20260905235004 63 88 3.0 6.0 0.00 0.00 0.00 45 1020.2
20260905234019 63 94 5.0 7.0 0.00 0.00 0.00 45 1020.1
20260905233106 63 98 6.0 10.0 0.00 0.00 0.00 46 1020.0
20260905232204 64 114 7.0 12.0 0.00 0.00 0.00 45 1020.0
20260905231204 64 102 6.0 10.0 0.00 0.00 0.00 44 1019.9
20260905230205 63 95 8.0 13.0 0.00 0.00 0.00 43 1020.0
20260905225306 65 103 6.0 10.0 0.00 0.00 0.00 41 1019.9
20260905223504 65 74 7.0 9.0 0.00 0.00 0.00 43 1019.9
20260905221603 63 91 9.0 15.0 0.00 0.00 0.00 46 1020.1
20260905215704 63 90 10.0 14.0 0.00 0.00 0.00 48 1020.3
20260905214705 62 107 9.0 13.0 0.00 0.00 0.00 49 1020.2
20260905212805 61 98 10.0 15.0 0.00 0.00 0.00 51 1020.5
20260905211806 62 85 5.0 10.0 0.00 0.00 0.00 47 1020.5
20260905210805 63 91 12.0 14.0 0.00 0.00 0.00 45 1020.2
20260905205806 63 103 6.0 9.0 0.00 0.00 0.00 44 1020.2
20260905203906 65 85 5.0 7.0 0.00 0.00 0.00 40 1020.1
20260905202907 66 111 1.0 1.0 0.00 0.00 0.00 40 1020.2
20260905201905 66 130 4.0 7.0 0.00 0.00 0.00 46 1020.2
20260905201004 71 215 1.0 2.0 0.00 0.00 0.00 100 1020.2
20260905195005 69 190 0.0 1.0 0.00 0.00 0.00 100 1020.5
20260905194006 68 202 0.0 1.0 0.00 0.00 0.00 100 1020.8
20260905193104 68 247 0.0 0.0 0.00 0.00 0.00 99 1020.8
20260905192105 68 204 0.0 1.0 0.00 0.00 0.00 100 1021.0
20260905191203 68 225 0.0 2.0 0.00 0.00 0.00 99 1020.9
20260905190205 68 218 2.0 3.0 0.00 0.00 0.00 100 1021.2
20260905185306 69 213 3.0 4.0 0.00 0.00 0.00 99 1021.1
20260905184304 66 220 1.0 4.0 0.00 0.00 0.00 100 1021.0
20260905184203 66 247 2.0 4.0 0.00 0.00 0.00 100 1021.1
20260905183206 70 214 3.0 4.0 0.00 0.00 0.00 99 1021.2
20260905182206 70 217 2.0 5.0 0.00 0.00 0.00 99 1021.2
20260905175403 69 145 1.0 2.0 0.00 0.00 0.00 98 1021.4
20260905174405 65 311 3.0 5.0 0.00 0.00 0.00 100 1021.6
20260905171504 57 225 1.0 1.0 0.00 0.00 0.00 52 1021.6
20260905170603 57 167 1.0 2.0 0.00 0.00 0.00 53 1021.8
20260905165606 56 67 3.0 4.0 0.00 0.00 0.00 64 1021.7
20260905163606 54 189 0.0 2.0 0.00 0.00 0.00 60 1021.8
20260905162605 53 210 1.0 2.0 0.00 0.00 0.00 62 1021.8
20260905160705 52 235 1.0 3.0 0.00 0.00 0.00 68 1021.9
20260905155704 50 207 3.0 4.0 0.00 0.00 0.00 71 1022.1
20260905154706 49 234 2.0 4.0 0.00 0.00 0.00 73 1022.1
20260905153706 48 225 3.0 4.0 0.00 0.00 0.00 75 1022.1
20260905152706 46 239 2.0 4.0 0.00 0.00 0.00 77 1022.1
20260905150803 45 222 3.0 5.0 0.00 0.00 0.00 81 1022.2
20260905145820 43 267 1.0 3.0 0.00 0.00 0.00 83 1022.1
20260905144906 42 265 3.0 5.0 0.00 0.00 0.00 83 1022.2
20260905143903 42 262 3.0 6.0 0.00 0.00 0.00 86 1021.9
20260905142905 41 226 2.0 6.0 0.00 0.00 0.00 87 1021.8
20260905141904 40 269 2.0 4.0 0.00 0.00 0.00 88 1021.8
20260905141805 40 271 3.0 6.0 0.00 0.00 0.00 89 1021.6
20260905140805 39 222 2.0 5.0 0.00 0.00 0.00 90 1021.5
20260905135807 37 237 1.0 4.0 0.00 0.00 0.00 91 1021.4
20260905132807 32 226 1.0 2.0 0.00 0.00 0.00 89 1021.3
20260905131806 28 270 0.0 3.0 0.00 0.00 0.00 90 1021.2
20260905130804 33 239 0.0 2.0 0.00 0.00 0.00 90 1021.2
20260905124805 32 201 2.0 2.0 0.00 0.00 0.00 89 1021.0